FW7205 Weather Reports


Display with metric or nautical units.
time (UTC)temp
F
wind
direction
speed
MPH
gust
MPH
rain 1hr
in
rain 24hr
in
rain mn
in
humidity
%
barometer
mb
20260502223054 74 71 0.0 3.0 0.00 0.09 0.01 48 1017.9
20260502221552 74 63 1.0 3.0 0.00 0.09 0.01 46 1017.8
20260502220056 74 63 1.0 5.0 0.00 0.09 0.01 46 1018.1
20260502214554 74 0 0.0 2.0 0.00 0.18 0.01 48 1018.1
20260502213105 74 0 0.0 2.0 0.00 0.18 0.01 50 1018.4
20260502211556 74 0 1.0 5.0 0.00 0.18 0.01 49 1018.4
20260502210054 74 0 0.0 4.0 0.00 0.18 0.01 52 1018.7
20260502204602 73 347 0.0 2.0 0.00 0.32 0.01 52 1018.8
20260502203055 73 0 0.0 3.0 0.00 0.32 0.01 51 1018.7
20260502201555 73 65 1.0 4.0 0.00 0.32 0.01 52 1019.0
20260502200057 73 0 0.0 5.0 0.00 0.32 0.01 51 1019.1
20260502194555 73 57 0.0 3.0 0.00 0.42 0.01 54 1019.2
20260502193055 73 0 1.0 4.0 0.00 0.42 0.01 55 1019.4
20260502191554 72 0 0.0 4.0 0.00 0.42 0.01 56 1019.5
20260502190052 72 65 2.0 4.0 0.00 0.42 0.01 54 1019.8
20260502184558 72 46 0.0 3.0 0.00 0.42 0.01 58 1020.0
20260502183056 72 0 0.0 2.0 0.00 0.42 0.01 56 1020.1
20260502181554 71 355 0.0 4.0 0.00 0.42 0.01 59 1020.3
20260502180105 71 70 0.0 5.0 0.00 0.42 0.01 59 1020.6
20260502170108 69 0 0.0 4.0 0.01 0.47 0.01 60 1021.0
20260502163053 68 65 0.0 4.0 0.00 0.47 0.00 61 1021.0
20260502161557 66 22 0.0 4.0 0.00 0.47 0.00 65 1021.0
20260502151555 63 0 0.0 2.0 0.00 0.54 0.00 76 1020.9
20260502123056 50 0 0.0 0.0 0.00 0.80 0.00 92 1019.2
20260502121555 50 0 0.0 1.0 0.00 0.80 0.00 92 1018.7
20260502114559 50 0 0.0 0.0 0.00 0.99 0.00 92 1018.4
20260502113057 50 0 0.0 0.0 0.00 0.99 0.00 92 1018.1
20260502111608 51 0 0.0 0.0 0.00 0.99 0.00 92 1018.1
20260502110057 51 0 0.0 0.0 0.00 0.99 0.00 92 1017.8
20260502104554 51 0 0.0 1.0 0.00 1.09 0.00 92 1017.6
20260502103110 51 0 0.0 0.0 0.00 1.09 0.00 92 1017.4
20260502101609 51 0 0.0 1.0 0.00 1.09 0.00 92 1017.3
20260502100104 51 0 0.0 1.0 0.00 1.09 0.00 91 1017.2
20260502070057 52 0 0.0 1.0 0.00 1.41 0.00 91 1016.2
20260502064601 53 0 0.0 1.0 0.00 1.41 0.00 91 1016.3
20260502063059 53 0 0.0 2.0 0.00 1.41 0.00 92 1016.3
20260502061600 53 360 0.0 2.0 0.00 1.41 0.00 92 1016.1
20260502060057 52 0 0.0 1.0 0.00 1.41 0.00 92 1016.3
20260502054602 52 360 0.0 2.0 0.00 1.42 0.00 92 1016.3
20260502053059 52 0 0.0 2.0 0.00 1.42 0.00 92 1016.4
20260502051601 52 360 0.0 3.0 0.00 1.42 0.00 92 1016.5
20260502050059 52 360 1.0 4.0 0.00 1.42 0.00 92 1016.2
20260502044602 52 360 1.0 4.0 0.00 1.54 1.42 92 1016.1
20260502043107 52 360 1.0 5.0 0.00 1.54 1.42 93 1016.1
20260502041555 52 360 1.0 4.0 0.00 1.54 1.42 93 1016.0
20260502040058 52 360 1.0 4.0 0.00 1.54 1.42 93 1016.1
20260502034554 52 360 1.0 3.0 0.00 1.55 1.42 93 1016.3
20260502033057 52 360 1.0 5.0 0.00 1.55 1.42 93 1016.2
20260502031556 52 360 1.0 8.0 0.00 1.55 1.42 93 1016.1
20260502030100 53 360 1.0 4.0 0.00 1.55 1.42 93 1015.8
20260502024557 53 360 1.0 4.0 0.00 1.55 1.42 94 1015.8
20260502023057 53 0 1.0 5.0 0.00 1.55 1.42 94 1015.5
20260502021556 54 360 0.0 3.0 0.00 1.55 1.42 94 1015.4
20260502020059 53 0 0.0 4.0 0.00 1.55 1.42 94 1014.7
20260502014559 54 360 1.0 6.0 0.00 1.55 1.42 94 1013.8
20260502013059 54 360 1.0 5.0 0.00 1.55 1.42 94 1013.6
20260502011602 54 360 1.0 5.0 0.00 1.55 1.42 94 1013.8
20260502010054 54 360 1.0 3.0 0.00 1.55 1.42 94 1013.8
20260502004608 54 360 1.0 3.0 0.01 1.55 1.42 94 1013.8
20260502003056 54 55 1.0 4.0 0.01 1.55 1.42 94 1013.8
20260502001554 55 63 1.0 5.0 0.01 1.55 1.42 94 1013.4
20260502000110 55 360 1.0 5.0 0.03 1.55 1.42 94 1013.7
20260501234558 56 360 1.0 3.0 0.04 1.54 1.41 94 1013.4
20260501233053 56 360 0.0 3.0 0.05 1.54 1.41 94 1013.2
20260501231555 57 360 0.0 3.0 0.06 1.54 1.41 94 1012.9
20260501230055 57 360 0.0 3.0 0.05 1.52 1.39 94 1012.4
20260501224554 57 360 1.0 3.0 0.03 1.50 1.37 94 1012.0